�������l�o���
Date,Time,MP-1(��Sv/h),MP-2(��Sv/h),MP-3(��Sv/h),MP-4(��Sv/h),MP-5(��Sv/h),MP-6(��Sv/h),MP-7(��Sv/h),MP-8(��Sv/h),����,����(m/s),���J
2016/05/30,00:00,1.588,2.522,2.552,2.326,2.534,0.660,1.226,1.060,���k��,1.2,��
2016/05/30,00:10,1.590,2.522,2.552,2.324,2.535,0.658,1.228,1.060,�k��,1.4,��
2016/05/30,00:20,1.590,2.520,2.554,2.326,2.534,0.656,1.226,1.062,�k�k��,0.8,��
2016/05/30,00:30,1.587,2.525,2.552,2.324,2.533,0.658,1.228,1.061,�k�k��,0.6,��
2016/05/30,00:40,1.590,2.522,2.551,2.326,2.529,0.658,1.228,1.062,-,CALM,��
2016/05/30,00:50,1.588,2.522,2.554,2.326,2.535,0.658,1.228,1.061,�쓌,0.9,��
2016/05/30,01:00,1.585,2.523,2.553,2.326,2.532,0.660,1.226,1.063,-,CALM,��
2016/05/30,01:10,1.587,2.523,2.551,2.323,2.536,0.660,1.227,1.062,-,CALM,��
2016/05/30,01:20,1.588,2.523,2.554,2.329,2.530,0.658,1.229,1.060,�k��,1.5,��
2016/05/30,01:30,1.587,2.523,2.556,2.329,2.533,0.659,1.225,1.061,�k�k��,1.7,��
2016/05/30,01:40,1.588,2.523,2.556,2.324,2.532,0.658,1.226,1.060,�k�k��,1.2,��
2016/05/30,01:50,1.588,2.522,2.554,2.329,2.533,0.657,1.227,1.061,�k�k��,2.0,��
2016/05/30,02:00,1.590,2.527,2.553,2.324,2.536,0.659,1.229,1.061,�k,1.9,��
2016/05/30,02:10,1.590,2.523,2.559,2.326,2.535,0.657,1.229,1.062,�k,2.0,��
2016/05/30,02:20,1.588,2.527,2.550,2.326,2.533,0.657,1.227,1.062,�k�k��,3.5,��
2016/05/30,02:30,1.590,2.525,2.555,2.326,2.536,0.658,1.226,1.061,�k�k��,4.1,��
2016/05/30,02:40,1.588,2.523,2.555,2.324,2.534,0.659,1.227,1.064,�k�k��,4.1,��
2016/05/30,02:50,1.590,2.522,2.555,2.325,2.531,0.658,1.227,1.062,�k�k��,4.5,��
2016/05/30,03:00,1.588,2.527,2.553,2.326,2.532,0.658,1.228,1.061,�k�k��,4.2,��
2016/05/30,03:10,1.590,2.523,2.554,2.325,2.535,0.658,1.229,1.063,�k��,3.6,��
2016/05/30,03:20,1.587,2.523,2.553,2.326,2.534,0.659,1.225,1.061,�k�k��,3.0,��
2016/05/30,03:30,1.588,2.522,2.555,2.327,2.530,0.658,1.227,1.063,�k�k��,3.6,��
2016/05/30,03:40,1.588,2.523,2.549,2.325,2.534,0.658,1.225,1.062,�k,3.1,��
2016/05/30,03:50,1.587,2.522,2.552,2.327,2.536,0.658,1.226,1.062,�k��,1.5,��
2016/05/30,04:00,1.587,2.522,2.552,2.324,2.528,0.658,1.224,1.062,�k,3.0,��
2016/05/30,04:10,1.587,2.522,2.554,2.327,2.529,0.657,1.226,1.061,�k,2.0,��
2016/05/30,04:20,1.588,2.520,2.551,2.326,2.533,0.658,1.227,1.059,-,CALM,��
2016/05/30,04:30,1.588,2.522,2.553,2.326,2.530,0.658,1.226,1.061,���쓌,1.1,��
2016/05/30,04:40,1.588,2.523,2.548,2.325,2.530,0.657,1.225,1.063,���쓌,0.9,��
2016/05/30,04:50,1.588,2.522,2.552,2.322,2.528,0.657,1.228,1.062,��,0.8,��
2016/05/30,05:00,1.590,2.522,2.551,2.327,2.532,0.659,1.228,1.061,-,CALM,��
2016/05/30,05:10,1.588,2.520,2.554,2.321,2.534,0.658,1.228,1.062,���k��,0.6,��
2016/05/30,05:20,1.588,2.523,2.551,2.324,2.532,0.656,1.228,1.062,��쓌,0.6,��
2016/05/30,05:30,1.590,2.522,2.553,2.327,2.534,0.654,1.228,1.060,-,CALM,��
2016/05/30,05:40,1.587,2.523,2.552,2.327,2.535,0.655,1.226,1.061,��,2.0,��
2016/05/30,05:50,1.588,2.520,2.550,2.325,2.531,0.656,1.227,1.061,��쓌,2.2,��
2016/05/30,06:00,1.588,2.520,2.551,2.325,2.534,0.656,1.229,1.062,��쓌,2.0,��
2016/05/30,06:10,1.592,2.523,2.552,2.326,2.532,0.657,1.228,1.061,��,2.6,��
2016/05/30,06:20,1.587,2.522,2.549,2.326,2.528,0.655,1.227,1.060,��쓌,3.0,��
2016/05/30,06:30,1.587,2.518,2.553,2.327,2.533,0.657,1.227,1.062,��,4.0,��
2016/05/30,06:40,1.588,2.520,2.551,2.327,2.531,0.656,1.226,1.061,��,2.3,��
2016/05/30,06:50,1.587,2.520,2.554,2.327,2.531,0.656,1.225,1.060,��,1.7,��
2016/05/30,07:00,1.585,2.523,2.549,2.326,2.532,0.656,1.226,1.062,��쓌,2.3,��
2016/05/30,07:10,1.587,2.522,2.555,2.325,2.535,0.656,1.225,1.062,��쓌,3.0,��
2016/05/30,07:20,1.588,2.520,2.552,2.326,2.532,0.657,1.224,1.062,�쓌,0.9,��
2016/05/30,07:30,1.585,2.523,2.552,2.327,2.532,0.655,1.225,1.060,��,0.9,��
2016/05/30,07:40,1.590,2.523,2.553,2.328,2.527,0.655,1.225,1.059,��,0.9,��
2016/05/30,07:50,1.588,2.525,2.554,2.324,2.530,0.655,1.226,1.061,���쐼,0.6,��
2016/05/30,08:00,1.587,2.525,2.555,2.325,2.531,0.655,1.226,1.062,��쐼,1.1,��
2016/05/30,08:10,1.592,2.523,2.556,2.326,2.529,0.657,1.227,1.060,��쐼,1.5,��
2016/05/30,08:20,1.588,2.523,2.556,2.327,2.532,0.658,1.226,1.059,��쐼,1.5,��
2016/05/30,08:30,1.588,2.523,2.555,2.326,2.531,0.657,1.228,1.062,�쐼,2.3,��
2016/05/30,08:40,1.588,2.522,2.555,2.328,2.531,0.656,1.227,1.062,��쐼,1.7,��
2016/05/30,08:50,1.590,2.522,2.555,2.325,2.532,0.656,1.225,1.061,��쐼,2.0,��
2016/05/30,09:00,1.590,2.523,2.554,2.327,2.531,0.655,1.226,1.059,��,4.4,��
2016/05/30,09:10,1.592,2.522,2.555,2.328,2.534,0.656,1.222,1.060,��쐼,4.1,��
2016/05/30,09:20,1.590,2.527,2.556,2.331,2.527,0.655,1.225,1.062,��,3.9,��
2016/05/30,09:30,1.588,2.523,2.558,2.329,2.527,0.654,1.224,1.062,��,3.4,��
2016/05/30,09:40,1.588,2.525,2.556,2.329,2.529,0.656,1.225,1.059,��,2.0,��
2016/05/30,09:50,1.588,2.522,2.556,2.330,2.525,0.654,1.224,1.059,��쓌,1.7,��
2016/05/30,10:00,1.590,2.522,2.556,2.331,2.510,0.656,1.224,1.059,��,3.8,��
2016/05/30,10:10,1.590,2.523,2.557,2.329,2.531,0.654,1.225,1.059,��,4.1,��
2016/05/30,10:20,1.588,2.527,2.556,2.329,2.528,0.655,1.225,1.061,��,4.0,��
2016/05/30,10:30,1.585,2.525,2.560,2.331,2.525,0.653,1.223,1.059,��,4.4,��
2016/05/30,10:40,1.588,2.523,2.556,2.329,2.528,0.654,1.225,1.057,��,4.3,��
2016/05/30,10:50,1.587,2.523,2.558,2.328,2.528,0.655,1.227,1.057,��,4.8,��
2016/05/30,11:00,1.587,2.523,2.557,2.332,2.524,0.655,1.226,1.058,��,5.6,��
2016/05/30,11:10,1.587,2.523,2.557,2.329,2.528,0.655,1.225,1.058,��,4.0,��
2016/05/30,11:20,1.588,2.523,2.556,2.327,2.521,0.654,1.226,1.057,��,5.1,��
2016/05/30,11:30,1.583,2.527,2.561,2.329,2.527,0.655,1.225,1.058,��,4.3,��
2016/05/30,11:40,1.578,2.528,2.558,2.328,2.532,0.655,1.224,1.058,��쓌,4.2,��
2016/05/30,11:50,1.577,2.530,2.556,2.331,2.529,0.654,1.225,1.060,��쓌,3.9,��
2016/05/30,12:00,1.585,2.525,2.556,2.329,2.528,0.655,1.224,1.056,��,3.7,��
2016/05/30,12:10,1.587,2.523,2.558,2.329,2.532,0.654,1.226,1.059,��쓌,3.1,��
2016/05/30,12:20,1.587,2.525,2.557,2.331,2.533,0.654,1.225,1.057,�쓌,2.0,��
2016/05/30,12:30,1.588,2.527,2.556,2.328,2.529,0.655,1.226,1.058,��,2.8,��
2016/05/30,12:40,1.588,2.523,2.556,2.329,2.530,0.655,1.227,1.060,���쓌,1.4,��
2016/05/30,12:50,1.587,2.527,2.561,2.328,2.532,0.653,1.223,1.057,�k��,3.3,��
2016/05/30,13:00,1.588,2.527,2.558,2.326,2.529,0.654,1.225,1.060,�k��,3.3,��
2016/05/30,13:10,1.588,2.527,2.556,2.328,2.533,0.654,1.226,1.058,���k��,2.0,��
2016/05/30,13:20,1.587,2.527,2.557,2.329,2.531,0.653,1.225,1.058,���k��,3.1,��
2016/05/30,13:30,1.587,2.528,2.558,2.331,2.532,0.654,1.224,1.059,���k��,3.7,��
2016/05/30,13:40,1.587,2.523,2.557,2.329,2.532,0.655,1.224,1.061,���k��,3.6,��
2016/05/30,13:50,-,2.527,2.557,2.331,2.530,0.654,1.226,1.058,���k��,2.3,��
2016/05/30,14:00,-,2.528,2.560,2.326,2.526,0.654,1.226,1.059,��,3.3,��
2016/05/30,14:10,-,2.530,2.558,2.328,2.528,0.655,1.223,1.058,��,4.1,��
2016/05/30,14:20,-,2.532,2.556,2.330,2.528,0.654,1.226,1.058,���k��,4.3,��
2016/05/30,14:30,-,2.527,2.559,2.330,2.526,0.655,1.224,1.058,���k��,4.4,��
2016/05/30,14:40,-,2.525,2.555,2.332,2.530,0.654,1.225,1.057,��,3.9,��
2016/05/30,14:50,-,2.525,2.558,2.330,2.531,0.653,1.224,1.058,��,3.9,��
2016/05/30,15:00,-,2.525,2.558,2.328,2.527,0.653,1.227,1.058,��,3.3,��
2016/05/30,15:10,-,2.530,2.557,2.331,2.526,0.655,1.225,1.059,��,3.1,��
2016/05/30,15:20,-,2.532,2.555,2.331,2.531,0.653,1.225,1.057,��,3.7,��
2016/05/30,15:30,-,2.532,2.561,2.331,2.528,0.656,1.225,1.057,���k��,2.6,��
2016/05/30,15:40,-,2.528,2.557,2.331,2.533,0.655,1.225,1.060,��,3.3,��
2016/05/30,15:50,-,2.530,2.560,2.330,2.531,0.654,1.227,1.059,���k��,2.8,��
2016/05/30,16:00,-,2.530,2.557,2.332,2.533,0.656,1.225,1.060,���k��,2.3,��
2016/05/30,16:10,-,2.528,2.560,2.330,2.531,0.655,1.226,1.058,�k��,2.3,��
2016/05/30,16:20,-,2.528,2.561,2.331,2.532,0.656,1.224,1.058,���k��,1.7,��
2016/05/30,16:30,1.585,2.528,2.560,2.331,2.533,0.656,1.226,1.060,���k��,2.5,��
2016/05/30,16:40,1.585,2.527,2.558,2.331,2.533,0.657,1.226,1.059,���k��,2.2,��
2016/05/30,16:50,1.585,2.527,2.566,2.329,2.531,0.658,1.226,1.059,���k��,2.3,��
2016/05/30,17:00,1.587,2.527,2.561,2.332,2.533,0.659,1.223,1.059,���k��,2.3,��
2016/05/30,17:10,1.588,2.527,2.559,2.333,2.533,0.657,1.224,1.060,��,2.3,��
2016/05/30,17:20,1.590,2.528,2.563,2.331,2.535,0.656,1.225,1.060,��,1.5,��
2016/05/30,17:30,1.587,2.530,2.563,2.329,2.534,0.659,1.225,1.058,��,1.1,��
2016/05/30,17:40,1.587,2.530,2.562,2.329,2.534,0.657,1.227,1.060,��,0.9,��
2016/05/30,17:50,1.588,2.527,2.560,2.330,2.535,0.657,1.225,1.060,-,CALM,��
2016/05/30,18:00,1.588,2.530,2.560,2.333,2.535,0.657,1.226,1.061,�k,0.8,��
2016/05/30,18:10,1.588,2.528,2.560,2.334,2.532,0.657,1.223,1.061,�k�k��,1.2,��
2016/05/30,18:20,1.587,2.528,2.560,2.330,2.537,0.657,1.225,1.062,�k�k��,0.9,��
2016/05/30,18:30,1.587,2.528,2.558,2.332,2.534,0.658,1.226,1.060,�k�k��,1.1,��
2016/05/30,18:40,1.588,2.527,2.557,2.330,2.532,0.658,1.223,1.063,�k�k��,0.8,��
2016/05/30,18:50,1.590,2.530,2.561,2.331,2.533,0.658,1.226,1.062,�k��,1.4,��
2016/05/30,19:00,1.590,2.530,2.562,2.331,2.533,0.657,1.228,1.061,�k�k��,1.4,��
2016/05/30,19:10,1.587,2.528,2.559,2.332,2.530,0.657,1.225,1.061,�k��,1.1,��
2016/05/30,19:20,1.588,2.528,2.558,2.333,2.538,0.658,1.225,1.061,�k��,1.5,��
2016/05/30,19:30,1.588,2.530,2.558,2.329,2.534,0.659,1.228,1.062,�k�k��,1.4,��
2016/05/30,19:40,1.588,2.528,2.558,2.330,2.532,0.658,1.228,1.063,�k��,1.4,��
2016/05/30,19:50,1.588,2.523,2.558,2.330,2.534,0.657,1.226,1.062,�k��,0.9,��
2016/05/30,20:00,1.585,2.525,2.553,2.328,2.536,0.657,1.226,1.062,�k��,0.9,��
2016/05/30,20:10,1.587,2.527,2.556,2.330,2.534,0.658,1.228,1.062,���k��,1.2,��
2016/05/30,20:20,1.588,2.527,2.559,2.327,2.534,0.658,1.229,1.062,���k��,1.2,��
2016/05/30,20:30,1.590,2.528,2.558,2.328,2.537,0.655,1.228,1.061,���k��,1.4,��
2016/05/30,20:40,1.588,2.525,2.559,2.329,2.532,0.657,1.225,1.062,���k��,1.4,��
2016/05/30,20:50,1.588,2.525,2.555,2.329,2.532,0.657,1.228,1.060,�k��,1.4,��
2016/05/30,21:00,1.588,2.528,2.559,2.326,2.531,0.657,1.227,1.061,��,0.6,��
2016/05/30,21:10,1.588,2.523,2.558,2.329,2.533,0.657,1.227,1.063,��쐼,1.4,��
2016/05/30,21:20,1.587,2.525,2.559,2.329,2.529,0.657,1.227,1.061,��쐼,2.0,��
2016/05/30,21:30,1.585,2.527,2.553,2.327,2.531,0.656,1.227,1.061,��쐼,1.4,��
2016/05/30,21:40,1.588,2.528,2.556,2.329,2.534,0.656,1.227,1.062,��쐼,1.7,��
2016/05/30,21:50,1.587,2.528,2.554,2.328,2.529,0.658,1.228,1.061,��쐼,1.4,��
2016/05/30,22:00,1.590,2.527,2.558,2.329,2.532,0.657,1.227,1.061,��,1.4,��
2016/05/30,22:10,1.587,2.522,2.557,2.330,2.529,0.657,1.228,1.060,��쐼,2.2,��
2016/05/30,22:20,1.587,2.525,2.558,2.327,2.531,0.656,1.228,1.061,��쐼,3.3,��
2016/05/30,22:30,1.590,2.527,2.557,2.328,2.533,0.658,1.230,1.061,��,3.8,��
2016/05/30,22:40,1.590,2.527,2.558,2.331,2.533,0.656,1.228,1.061,��,3.3,��
2016/05/30,22:50,1.588,2.525,2.561,2.329,2.530,0.657,1.226,1.062,��,2.0,��
2016/05/30,23:00,1.590,2.523,2.559,2.330,2.537,0.658,1.228,1.061,��,2.6,��
2016/05/30,23:10,1.587,2.523,2.556,2.326,2.532,0.657,1.226,1.061,��쐼,2.0,�L
2016/05/30,23:20,1.588,2.523,2.556,2.330,2.530,0.659,1.227,1.060,��,3.1,��
2016/05/30,23:30,1.587,2.523,2.557,2.330,2.532,0.658,1.229,1.060,��,3.4,��
2016/05/30,23:40,1.588,2.523,2.559,2.329,2.528,0.657,1.229,1.062,��,3.5,��
2016/05/30,23:50,1.590,2.525,2.558,2.330,2.529,0.659,1.226,1.061,��,2.3,��
